Preview of NWS' New Version of Forecast
This preview is not operational and should not be used for support decisions.

Regional Weather Roundup (RWR)

Issued by National Weather Service (NWS)

                            
000
ASUS45 KBOI 181210
RWRID 

IDAHO REGIONAL WEATHER ROUNDUP
NATIONAL WEATHER SERVICE BOISE ID
600 AM MDT WED SEP 18 2019

NOTE: "FAIR" INDICATES FEW OR NO CLOUDS BELOW 12000 FEET
WITH NO SIGNIFICANT WEATHER AND/OR OBSTRUCTIONS TO VISIBILITY

IDZ012-014-181300-
SOUTHWEST IDAHO

  
CITY           SKY/WX    TMP DP  RH WIND       PRES   REMARKS
BOISE          CLOUDY    52  47  83 NW7       29.89R                  
CALDWELL       CLOUDY    53  49  86 W6        29.89R                  
MOUNTAIN HOME  CLOUDY    53  38  57 SE15      29.86F                  
$$

IDZ016-017-181300-
SOUTHCENTRAL IDAHO

  
CITY           SKY/WX    TMP DP  RH WIND       PRES   REMARKS
BURLEY         CLEAR     42  35  76 CALM      29.92F                  
JEROME         CLEAR     43  34  70 NE14      29.92F                  
TWIN FALLS     CLEAR     50  28  42 SE3       29.91F                  
$$

IDZ019>023-181300-
SOUTHEAST IDAHO

  
CITY           SKY/WX    TMP DP  RH WIND       PRES   REMARKS
IDAHO FALLS    CLEAR     36  32  85 N7        30.02F WCI  30          
POCATELLO      CLEAR     35  31  85 N6        29.98F WCI  30          
REXBURG        CLEAR     38  33  82 NE6       30.03F WCI  33          
$$

IDZ006-010-011-018-031-032-181300-
CENTRAL IDAHO MOUNTAINS

  
CITY           SKY/WX    TMP DP  RH WIND       PRES   REMARKS
MCCALL         LGT RAIN  45  42  89 E3        29.91R                  
HAILEY         MOCLDY    41  34  75 NW6       30.02F                  
STANLEY          N/A     48  28  46 S9        29.97S                  
SALMON         CLOUDY    47  43  86 CALM      29.93F                  
CHALLIS        MOCLDY    44  38  79 S3        29.95S                  
$$

IDZ002-004-006-007-026-181300-
NORTHERN IDAHO

  
CITY           SKY/WX    TMP DP  RH WIND       PRES   REMARKS
LEWISTON       CLOUDY    59  47  64 E6        29.80F                  
LOWELL           N/A     51  49  92 CALM      29.93S                  
COEUR D'ALENE  CLOUDY    53  45  74 NE9       29.84S                  
MULLAN PASS    CLOUDY    41  35  79 VRB3      29.91S                  
$$